Fremont, MI

12:28 AM EST on December 10, 2019 (GMT -0500)
Fremont

Weather History for KFFX - October, 2019

Change the Weather History Date:

Saturday, October 19, 2019

  Actual Average (WUND) Record (WUND)
Temperature  
Mean Temperature 52 °F -  
Max Temperature 62 °F - - (-1)
Min Temperature 41 °F - - (-1)
Degree Days  
Heating Degree Days 14    
Growing Degree Days 2 (Base 50)    
Moisture  
Dew Point 40 °F    
Average Humidity 68    
Maximum Humidity 90    
Minimum Humidity 45    
Precipitation  
Precipitation 0.00 in - - ()
Sea Level Pressure  
Sea Level Pressure 29.86 in    
Wind  
Wind Speed 6 mph ()    
Max Wind Speed 12 mph    
Max Gust Speed 17 mph    
Visibility 10.0 miles    
Events Rain    
Averages and records for this station are not official NWS values.
T = Trace of Precipitation, MM = Missing Value Source: Averaged Metar Reports

Daily Weather History Graph

Daily Weather History Graph

Search for Another Location

Airport or City:

Astronomy

Oct. 19, 2019 Rise Set
Actual Time 8:02 AM EDT 6:54 PM EDT
Civil Twilight 7:33 AM EDT 7:23 PM EDT
Nautical Twilight 7:00 AM EDT 7:56 PM EDT
Astronomical Twilight 6:27 AM EDT 8:29 PM EDT
Moon 10:55 PM EDT (10/19) 1:41 PM EDT (10/19)
Length of Visible Light 11h 49m
Length of Day
10h 52m
Waning Gibbous, 70% of the Moon is Illuminated
Oct 19
Waning Gibbous
Oct 21
Last Quarter
Oct 27
New
Nov 4
First Quarter
Nov 12
Full

Hourly Weather History & Observations

Time (EDT) Temp. Windchill Dew Point Humidity Pressure Visibility Wind Dir Wind Speed Gust Speed Precip Events Conditions
12:15 AM 44.8 °F 41.6 °F 37.6 °F 76% 29.95 in 10.0 mi SE 5.8 mph - N/A   Clear
12:16 AM 44.8 °F 41.6 °F 37.6 °F 76% 29.96 in 10.0 mi SE 5.8 mph - N/A   Clear
12:35 AM 44.4 °F 42.0 °F 37.6 °F 77% 29.95 in 10.0 mi ESE 4.6 mph - N/A   Clear
12:55 AM 43.5 °F 40.9 °F 37.6 °F 80% 29.95 in 10.0 mi ESE 4.6 mph - N/A   Clear
1:18 AM 43.7 °F 41.1 °F 37.4 °F 78% 29.95 in 10.0 mi SE 4.6 mph - N/A   Clear
1:36 AM 43.3 °F 39.9 °F 37.4 °F 80% 29.95 in 10.0 mi SE 5.8 mph - N/A   Clear
1:55 AM 43.2 °F 39.7 °F 37.6 °F 81% 29.94 in 10.0 mi SE 5.8 mph - N/A   Clear
1:56 AM 43.2 °F 39.7 °F 37.6 °F 81% 29.94 in 10.0 mi SE 5.8 mph - N/A   Clear
2:15 AM 42.8 °F 40.1 °F 37.6 °F 82% 29.95 in 10.0 mi SE 4.6 mph - N/A   Clear
2:39 AM 42.1 °F 39.2 °F 38.3 °F 86% 29.94 in 10.0 mi ESE 4.6 mph - N/A   Clear
2:56 AM 42.4 °F 38.1 °F 37.8 °F 83% 29.94 in 10.0 mi SE 6.9 mph - N/A   Clear
3:15 AM 43.0 °F 39.5 °F 37.4 °F 81% 29.94 in 10.0 mi SE 5.8 mph - N/A   Clear
3:16 AM 43.0 °F 39.5 °F 37.4 °F 81% 29.94 in 10.0 mi SE 5.8 mph - N/A   Clear
3:35 AM 42.6 °F 37.8 °F 37.8 °F 83% 29.94 in 10.0 mi SE 8.1 mph - N/A   Clear
3:36 AM 42.6 °F 38.4 °F 37.6 °F 82% 29.94 in 10.0 mi ESE 6.9 mph - N/A   Clear
3:55 AM 42.8 °F 39.3 °F 37.4 °F 81% 29.94 in 10.0 mi SE 5.8 mph - N/A   Clear
4:00 AM 42.8 °F 39.3 °F 37.4 °F 81% 29.93 in 10.0 mi SE 5.8 mph - N/A   Clear
4:18 AM 42.3 °F 38.6 °F 37.6 °F 83% 29.93 in 10.0 mi SE 5.8 mph - N/A   Clear
4:36 AM 42.8 °F 38.0 °F 37.4 °F 81% 29.92 in 10.0 mi SE 8.1 mph - N/A   Clear
4:55 AM 43.0 °F 39.5 °F 37.2 °F 80% 29.92 in 10.0 mi SE 5.8 mph - N/A   Clear
4:56 AM 43.0 °F 39.5 °F 37.2 °F 80% 29.92 in 10.0 mi SE 5.8 mph - N/A   Clear
5:15 AM 42.8 °F 41.1 °F 37.0 °F 80% 29.93 in 10.0 mi SE 3.5 mph - N/A   Clear
5:16 AM 42.8 °F - 36.9 °F 80% 29.93 in 10.0 mi Calm Calm - N/A   Clear
5:39 AM 41.9 °F 37.5 °F 36.9 °F 82% 29.93 in 10.0 mi SE 6.9 mph - N/A   Clear
5:57 AM 41.5 °F 37.8 °F 38.8 °F 90% 29.93 in 10.0 mi SE 5.8 mph - N/A   Clear
6:15 AM 41.7 °F 38.8 °F 37.9 °F 86% 29.93 in 10.0 mi SE 4.6 mph - N/A   Clear
6:35 AM 42.1 °F 38.4 °F 37.4 °F 83% 29.92 in 10.0 mi SE 5.8 mph - N/A   Clear
6:36 AM 42.1 °F 37.7 °F 37.4 °F 83% 29.92 in 10.0 mi SE 6.9 mph - N/A   Clear
6:55 AM 42.4 °F 38.8 °F 37.2 °F 82% 29.92 in 10.0 mi SE 5.8 mph - N/A   Clear
7:00 AM 42.4 °F 38.1 °F 37.0 °F 81% 29.92 in 10.0 mi SE 6.9 mph - N/A   Clear
7:18 AM 41.9 °F 38.2 °F 36.9 °F 82% 29.92 in 10.0 mi SE 5.8 mph - N/A   Clear
7:36 AM 41.9 °F 39.0 °F 36.9 °F 82% 29.93 in 10.0 mi SE 4.6 mph - N/A   Clear
7:55 AM 41.4 °F 36.2 °F 37.8 °F 87% 29.92 in 10.0 mi SE 8.1 mph - N/A   Clear
8:15 AM 42.1 °F 39.2 °F 37.4 °F 83% 29.92 in 10.0 mi SE 4.6 mph - N/A   Clear
8:16 AM 42.3 °F 39.4 °F 37.4 °F 83% 29.92 in 10.0 mi SE 4.6 mph - N/A   Clear
8:39 AM 42.8 °F 38.6 °F 37.6 °F 82% 29.92 in 10.0 mi SE 6.9 mph - N/A   Clear
8:57 AM 43.2 °F 39.7 °F 37.8 °F 81% 29.92 in 10.0 mi SE 5.8 mph - N/A   Clear
9:15 AM 44.2 °F 41.0 °F 38.3 °F 80% 29.92 in 10.0 mi SE 5.8 mph - N/A   Clear
9:16 AM 44.2 °F 41.0 °F 38.3 °F 80% 29.92 in 10.0 mi SE 5.8 mph - N/A   Clear
9:35 AM 45.0 °F 42.6 °F 38.7 °F 79% 29.92 in 10.0 mi SSE 4.6 mph - N/A   Clear
9:55 AM 45.9 °F 42.9 °F 38.7 °F 76% 29.91 in 10.0 mi SE 5.8 mph - N/A   Clear
10:00 AM 46.4 °F 44.3 °F 39.2 °F 76% 29.91 in 10.0 mi SE 4.6 mph - N/A   Clear
10:18 AM 47.3 °F - 39.4 °F 74% 29.89 in 10.0 mi SSE 5.8 mph - N/A   Clear
10:36 AM 49.3 °F - 40.3 °F 71% 29.89 in 10.0 mi SSE 5.8 mph - N/A   Clear
10:55 AM 50.9 °F - 41.0 °F 69% 29.89 in 10.0 mi SSE 4.6 mph - N/A   Clear
10:56 AM 51.1 °F - 41.0 °F 68% 29.89 in 10.0 mi SSE 5.8 mph - N/A   Clear
11:15 AM 52.9 °F - 41.7 °F 66% 29.88 in 10.0 mi Calm Calm - N/A   Clear
11:39 AM 55.2 °F - 40.8 °F 58% 29.88 in 10.0 mi SSE 8.1 mph - N/A   Clear
11:57 AM 57.0 °F - 40.6 °F 54% 29.88 in 10.0 mi South 5.8 mph 16.1 mph N/A   Clear
12:15 PM 57.9 °F - 40.8 °F 53% 29.87 in 10.0 mi South 10.4 mph - N/A   Clear
12:16 PM 57.9 °F - 40.5 °F 52% 29.87 in 10.0 mi South 6.9 mph - N/A   Clear
12:35 PM 59.0 °F - 41.0 °F 51% 29.86 in 10.0 mi SSW 8.1 mph - N/A   Clear
12:36 PM 59.2 °F - 41.2 °F 51% 29.86 in 10.0 mi South 5.8 mph - N/A   Clear
12:55 PM 60.3 °F - 40.8 °F 49% 29.85 in 10.0 mi South 9.2 mph - N/A   Clear
1:18 PM 61.5 °F - 40.5 °F 46% 29.85 in 10.0 mi SSE 10.4 mph - N/A   Clear
1:36 PM 59.0 °F - 40.5 °F 50% 29.84 in 10.0 mi SSE 8.1 mph 16.1 mph N/A   Clear
1:55 PM 59.9 °F - 41.4 °F 50% 29.83 in 10.0 mi SSE 8.1 mph 17.3 mph N/A   Clear
1:56 PM 59.9 °F - 41.4 °F 50% 29.83 in 10.0 mi South 9.2 mph - N/A   Clear
2:15 PM 60.8 °F - 40.8 °F 48% 29.82 in 10.0 mi South 11.5 mph 16.1 mph N/A   Clear
2:16 PM 60.8 °F - 40.6 °F 47% 29.82 in 10.0 mi South 10.4 mph 16.1 mph N/A   Clear
2:39 PM 61.3 °F - 42.1 °F 49% 29.81 in 10.0 mi South 6.9 mph - N/A   Clear
2:57 PM 61.2 °F - 41.0 °F 47% 29.81 in 10.0 mi South 9.2 mph - N/A   Clear
3:15 PM 62.1 °F - 41.4 °F 47% 29.80 in 10.0 mi SSE 10.4 mph 16.1 mph N/A   Clear
3:35 PM 61.7 °F - 40.8 °F 46% 29.79 in 10.0 mi South 8.1 mph 16.1 mph N/A   Clear
3:55 PM 61.3 °F - 40.8 °F 47% 29.78 in 10.0 mi South 9.2 mph 16.1 mph N/A   Clear
4:00 PM 61.0 °F - 41.0 °F 48% 29.78 in 10.0 mi SSE 6.9 mph - N/A   Clear
4:18 PM 62.2 °F - 41.7 °F 47% 29.78 in 10.0 mi SSE 5.8 mph 16.1 mph N/A   Clear
4:36 PM 62.6 °F - 40.8 °F 45% 29.78 in 10.0 mi SSE 8.1 mph - N/A   Clear
4:55 PM 61.7 °F - 41.4 °F 47% 29.77 in 10.0 mi SE 6.9 mph - N/A   Clear
5:15 PM 61.9 °F - 41.7 °F 48% 29.77 in 10.0 mi SSE 6.9 mph - N/A   Clear
5:39 PM 61.7 °F - 41.0 °F 47% 29.77 in 10.0 mi SSE 8.1 mph - N/A   Clear
5:57 PM 61.7 °F - 41.2 °F 47% 29.77 in 10.0 mi SSE 9.2 mph - N/A   Clear
6:15 PM 60.3 °F - 41.2 °F 49% 29.77 in 10.0 mi SSE 8.1 mph - N/A   Clear
6:35 PM 59.0 °F - 41.2 °F 52% 29.78 in 10.0 mi SSE 3.5 mph - N/A   Clear
6:55 PM 57.4 °F - 42.3 °F 57% 29.78 in 10.0 mi SE 4.6 mph - N/A   Clear
7:18 PM 56.1 °F - 42.8 °F 61% 29.78 in 10.0 mi SE 3.5 mph - N/A   Clear
7:36 PM 54.7 °F - 43.2 °F 65% 29.78 in 10.0 mi SE 4.6 mph - N/A   Clear
7:55 PM 54.5 °F - 42.8 °F 65% 29.78 in 10.0 mi SE 3.5 mph - N/A   Clear
8:15 PM 53.6 °F - 43.2 °F 68% 29.79 in 10.0 mi SE 3.5 mph - N/A   Clear
8:39 PM 52.7 °F - 43.0 °F 70% 29.78 in 10.0 mi ESE 4.6 mph - N/A   Clear
8:57 PM 52.0 °F - 42.8 °F 71% 29.78 in 10.0 mi ESE 3.5 mph - N/A   Clear
9:16 PM 52.7 °F - 43.2 °F 70% 29.78 in 10.0 mi ESE 4.6 mph - N/A   Clear
9:35 PM 52.7 °F - 43.0 °F 70% 29.77 in 10.0 mi ESE 4.6 mph - N/A   Clear
9:55 PM 53.1 °F - 42.8 °F 68% 29.77 in 10.0 mi ESE 5.8 mph - N/A   Clear
10:18 PM 52.9 °F - 42.8 °F 69% 29.76 in 10.0 mi ESE 4.6 mph - N/A   Clear
10:36 PM 53.1 °F - 43.0 °F 69% 29.76 in 10.0 mi ESE 4.6 mph - N/A   Scattered Clouds
10:55 PM 53.2 °F - 43.0 °F 68% 29.76 in 10.0 mi ESE 4.6 mph - N/A   Mostly Cloudy
10:56 PM 53.2 °F - 43.0 °F 68% 29.76 in 10.0 mi ESE 5.8 mph - N/A   Mostly Cloudy
11:15 PM 53.6 °F - 43.0 °F 67% 29.76 in 10.0 mi SE 4.6 mph - N/A   Overcast
11:16 PM 53.6 °F - 43.0 °F 67% 29.76 in 10.0 mi SE 4.6 mph - N/A   Overcast
11:39 PM 53.6 °F - 43.2 °F 68% 29.75 in 10.0 mi ESE 4.6 mph - N/A   Overcast
11:57 PM 53.6 °F - 43.3 °F 68% 29.75 in 10.0 mi ESE 4.6 mph - N/A Rain Light Rain